IW4EMA-3 Weather Reports


Display with metric or nautical units.
time (UTC)temp
F
wind
direction
speed
MPH
gust
MPH
rain 1hr
in
rain 24hr
in
rain mn
in
humidity
%
barometer
mb
20260506173418 65 206 5.0 7.0 0.00 0.49 0.49 82 1008.1
20260506172427 65 205 4.0 6.0 0.00 0.49 0.49 83 1008.1
20260506171459 65 193 2.0 2.0 0.00 0.49 0.49 83 1008.1
20260506170427 66 155 2.0 4.0 0.00 0.49 0.49 83 1008.0
20260506165419 66 161 3.0 3.0 0.00 0.49 0.49 84 1007.9
20260506164426 66 158 2.0 3.0 0.00 0.49 0.49 83 1008.0
20260506163458 67 162 1.0 4.0 0.00 0.49 0.49 82 1007.9
20260506162446 66 203 2.0 3.0 0.00 0.49 0.49 82 1008.0
20260506161419 67 174 3.0 6.0 0.00 0.49 0.49 82 1008.0
20260506160428 67 167 3.0 4.0 0.00 0.49 0.49 82 1008.1
20260506155419 67 191 5.0 7.0 0.00 0.49 0.49 81 1007.9
20260506154427 67 209 5.0 7.0 0.00 0.49 0.49 80 1008.0
20260506153419 67 183 6.0 9.0 0.00 0.49 0.49 80 1007.9
20260506152427 67 146 8.0 10.0 0.00 0.49 0.49 79 1008.0
20260506151440 67 145 4.0 6.0 0.00 0.49 0.49 80 1008.0
20260506150426 67 207 6.0 8.0 0.00 0.49 0.49 80 1008.0
20260506145419 68 166 3.0 6.0 0.00 0.49 0.49 80 1007.9
20260506144426 68 182 4.0 6.0 0.00 0.49 0.49 82 1008.2
20260506143419 68 195 4.0 8.0 0.00 0.49 0.49 82 1008.2
20260506142427 67 168 4.0 8.0 0.00 0.49 0.49 83 1008.2
20260506141419 67 186 6.0 8.0 0.00 0.49 0.49 84 1008.3
20260506140426 66 190 3.0 7.0 0.00 0.49 0.49 85 1008.3
20260506135420 66 213 5.0 8.0 0.00 0.49 0.49 85 1008.3
20260506134428 66 197 4.0 7.0 0.00 0.49 0.49 86 1008.6
20260506133419 65 149 5.0 8.0 0.00 0.49 0.49 88 1008.6
20260506132507 65 182 3.0 8.0 0.00 0.49 0.49 92 1008.8
20260506131420 65 212 4.0 6.0 0.00 0.49 0.49 93 1009.0
20260506130428 64 192 3.0 4.0 0.00 0.49 0.49 94 1009.0
20260506125420 64 230 1.0 3.0 0.00 0.49 0.49 94 1008.9
20260506124827 64 223 3.0 4.0 0.00 0.49 0.49 94 1008.8
20260506124131 63 0.0 0.0 0.00 0.49 0.49 94 1008.9
20260506115227 68 172 4.0 7.0 0.00 0.49 0.49 81 1008.9
20260506114259 68 172 5.0 8.0 0.00 0.49 0.49 82 1009.1
20260506105316 66 143 9.0 14.0 0.00 0.49 0.49 94 1009.2
20260506104343 65 141 7.0 10.0 0.00 0.49 0.49 96 1009.5
20260506103331 65 102 5.0 7.0 0.00 0.49 0.49 98 1009.7
20260506102324 64 174 9.0 13.0 0.00 0.49 0.49 98 1009.7
20260506101331 62 110 7.0 10.0 0.01 0.49 0.49 99 1009.7
20260506100323 62 134 4.0 6.0 0.01 0.49 0.49 99 1009.7
20260506095331 62 90 3.0 4.0 0.01 0.49 0.49 99 1009.6
20260506094324 62 124 4.0 8.0 0.01 0.49 0.49 99 1009.7
20260506093332 61 118 5.0 9.0 0.01 0.49 0.49 99 1009.7
20260506092324 61 131 6.0 9.0 0.02 0.49 0.49 99 1009.9
20260506091331 61 134 6.0 9.0 0.01 0.48 0.48 99 1010.0
20260506090324 60 89 5.0 8.0 0.02 0.48 0.48 99 1009.8
20260506085331 60 130 6.0 8.0 0.02 0.48 0.48 99 1010.0
20260506084324 60 173 3.0 6.0 0.02 0.48 0.48 99 1010.2
20260506083331 59 127 4.0 8.0 0.02 0.48 0.48 99 1010.1
20260506082324 59 127 1.0 2.0 0.01 0.47 0.47 99 1010.0
20260506081331 59 114 4.0 6.0 0.01 0.47 0.47 99 1009.8
20260506080324 59 114 3.0 4.0 0.00 0.46 0.46 99 1009.7
20260506073331 58 110 5.0 6.0 0.03 0.46 0.46 99 1009.7
20260506072404 58 109 5.0 7.0 0.03 0.46 0.46 99 1009.9
20260506071331 58 93 3.0 4.0 0.03 0.46 0.46 99 1010.0
20260506070323 58 115 3.0 4.0 0.03 0.46 0.46 99 1009.9
20260506062324 58 180 2.0 3.0 0.00 0.43 0.43 99 1010.2
20260506061336 58 163 1.0 2.0 0.03 0.43 0.43 99 1010.1
20260506060324 58 90 1.0 2.0 0.06 0.43 0.43 99 1009.9
20260506051351 58 129 4.0 7.0 0.20 0.40 0.40 99 1010.4
20260506050324 58 155 4.0 4.0 0.17 0.37 0.37 99 1010.6
20260506044323 58 151 5.0 9.0 0.07 0.27 0.27 99 1010.6
20260506043331 58 121 7.0 14.0 0.04 0.24 0.24 99 1010.4
20260506042345 58 116 3.0 6.0 0.02 0.22 0.22 99 1010.6
20260506041316 57 113 4.0 6.0 0.01 0.20 0.20 99 1010.4
20260506040324 57 105 4.0 6.0 0.02 0.20 0.20 99 1010.4
20260506035315 57 148 3.0 7.0 0.02 0.20 0.20 99 1010.2
20260506034323 57 110 2.0 3.0 0.02 0.20 0.20 99 1010.1
20260506033336 57 98 2.0 3.0 0.02 0.20 0.20 99 1010.1
20260506032324 57 97 3.0 3.0 0.03 0.20 0.20 99 1010.1
20260506031356 57 102 3.0 3.0 0.05 0.19 0.19 99 1010.4
20260506030324 57 33 3.0 4.0 0.07 0.18 0.18 99 1010.2
20260506025315 57 43 2.0 3.0 0.12 0.18 0.18 99 1010.6
20260506024344 57 44 2.0 3.0 0.16 0.18 0.18 99 1010.7
20260506023316 57 63 2.0 3.0 0.17 0.18 0.18 99 1010.8
20260506022324 57 23 2.0 3.0 0.16 0.17 0.17 99 1010.8
20260506021316 57 38 3.0 3.0 0.14 0.14 0.14 99 1011.0
20260506020324 57 49 3.0 4.0 0.11 0.11 0.11 99 1011.2
20260506015315 57 41 3.0 4.0 0.06 0.06 0.06 99 1011.2
20260506014324 57 23 3.0 4.0 0.02 0.02 0.02 99 1011.5
20260506013343 57 3 1.0 2.0 0.01 0.01 0.01 99 1011.6
20260506012324 57 17 0.0 1.0 0.01 0.01 0.01 99 1011.6
20260506011331 57 27 1.0 2.0 0.00 0.00 0.00 99 1011.7
20260506010323 57 66 2.0 3.0 0.00 0.00 0.00 98 1011.7
20260506005316 57 79 2.0 3.0 0.00 0.00 0.00 99 1011.6
20260506004324 57 40 6.0 8.0 0.00 0.00 0.00 98 1011.4
20260506003332 57 37 2.0 3.0 0.00 0.00 0.00 98 1011.3
20260506002324 57 61 3.0 4.0 0.00 0.00 0.00 98 1011.5
20260506001332 58 44 1.0 2.0 0.00 0.00 0.00 99 1011.6
20260506000324 58 58 1.0 2.0 0.00 0.00 0.00 99 1011.8
20260505235316 58 27 3.0 3.0 0.00 0.00 0.00 99 1011.8
20260505234324 58 30 3.0 3.0 0.00 0.00 0.00 98 1011.7
20260505233316 58 62 3.0 3.0 0.00 0.00 0.00 98 1011.8
20260505232344 58 37 2.0 2.0 0.00 0.00 0.00 98 1011.8
20260505231336 58 64 5.0 6.0 0.00 0.00 0.00 98 1011.8
20260505230323 58 33 2.0 3.0 0.00 0.00 0.00 98 1011.7
20260505225316 58 46 2.0 3.0 0.00 0.00 0.00 98 1011.8
20260505224324 58 27 3.0 6.0 0.00 0.00 0.00 98 1012.0
20260505223332 58 36 3.0 4.0 0.00 0.00 0.00 98 1012.0
20260505222324 58 36 4.0 4.0 0.00 0.00 0.00 98 1012.1
20260505221317 58 354 1.0 2.0 0.00 0.00 0.00 98 1012.0
20260505220324 58 28 2.0 3.0 0.00 0.00 0.00 97 1012.2
20260505215316 58 13 4.0 6.0 0.00 0.00 0.00 97 1012.1
20260505214324 58 342 4.0 7.0 0.00 0.00 0.00 97 1012.2
20260505213316 57 344 5.0 7.0 0.00 0.00 0.00 97 1012.2
20260505212344 57 14 4.0 7.0 0.00 0.00 0.00 97 1012.3
20260505211316 57 346 4.0 4.0 0.00 0.00 0.00 96 1012.3
20260505210324 57 343 3.0 6.0 0.00 0.00 0.00 96 1012.5
20260505205316 57 351 3.0 4.0 0.00 0.00 0.00 96 1012.3
20260505204343 58 341 2.0 3.0 0.00 0.00 0.00 96 1012.2
20260505203317 58 353 2.0 2.0 0.00 0.00 0.00 96 1012.2
20260505202345 58 334 5.0 7.0 0.00 0.00 0.00 95 1012.3
20260505201316 59 15 4.0 4.0 0.00 0.00 0.00 95 1012.2
20260505200324 59 2 2.0 4.0 0.00 0.00 0.00 95 1012.3
20260505195316 59 6 3.0 4.0 0.00 0.00 0.00 95 1012.3
20260505194324 59 7 4.0 6.0 0.00 0.00 0.00 94 1012.1
20260505193317 59 9 6.0 8.0 0.00 0.00 0.00 94 1011.9
20260505192325 60 5 4.0 4.0 0.00 0.00 0.00 94 1011.8
20260505191317 60 4 6.0 8.0 0.00 0.00 0.00 94 1011.8
20260505190324 60 346 5.0 7.0 0.00 0.00 0.00 93 1011.7
20260505185316 61 17 5.0 7.0 0.00 0.00 0.00 93 1011.7
20260505184325 61 1 6.0 8.0 0.00 0.00 0.00 92 1011.6
20260505183316 61 13 7.0 9.0 0.00 0.00 0.00 91 1011.6
20260505182324 62 346 4.0 6.0 0.00 0.00 0.00 91 1011.7
20260505181317 62 336 3.0 6.0 0.00 0.00 0.00 90 1011.6
20260505180345 63 351 6.0 9.0 0.00 0.00 0.00 89 1011.7
20260505175317 64 20 5.0 6.0 0.00 0.00 0.00 88 1011.6
20260505174324 64 348 5.0 9.0 0.00 0.00 0.00 87 1011.6